Location: Frydek-Mistek
(49.6830°N, 18.3330°E)
Time: 11:18:57
(UTC+02:00)

ISS - Pass Details

Date: 28 April 2024
Orbit: 411 x 419 km, 51.6° (Epoch: 26 May)

Event Time Altitude Azimuth Distance (km) Brightness Sun altitude
Exits shadow 02:29:46 14° 109° (ESE) 1,274 -1.2 -22.0°
Drops below altitude 10° 02:30:44 10° 95° (E) 1,512 -0.7 -21.9°
Enters shadow 03:27:30 -69° 247° (WSW) 12,346 3.6 -16.7°
Maximum altitude 04:04:58 73° 158° (SSE) 446 -3.7 -12.3°
